Location: Haliburton Scout Reserve
(45.0900°N, 78.3200°W)
Time: 13:19:12
(UTC-04:00)

Courier 1B Rocket - Pass Details

Date: 14 February 2023
Orbit: 920 x 1202 km, 28.2° (Epoch: 27 March)

Event Time Altitude Azimuth Distance (km) Brightness Sun altitude
Rises 14:07:47 0° 241° (WSW) 3,889 9.0 27.7°
Reaches altitude 10° 14:11:30 10° 224° (SW) 2,875 9.0 27.4°
Maximum altitude 14:16:03 19° 183° (S) 2,242 8.3 27.0°
Drops below altitude 10° 14:20:26 10° 141° (SE) 2,740 7.7 26.6°
Sets 14:23:52 0° 124° (ESE) 3,642 8.0 26.3°
